Stündliche Wetter Bolshie Lipki

Heute, 16 Juni, Mittwoch

Zeit Temperatur Niederschläge Wind Luftdruck Luftfeuchtigkeit
00:00 +10°C° 0 mm 2 m/S 753 mmHg 82%
01:00 +9°C° 0 mm 2 m/S 753 mmHg 85%
02:00 +8°C° 0 mm 2 m/S 754 mmHg 87%
03:00 +10°C° 0 mm 1 m/S 754 mmHg 85%
04:00 +10°C° 0 mm 1 m/S 754 mmHg 82%
05:00 +11°C° 0 mm 1 m/S 755 mmHg 80%
06:00 +13°C° 0 mm 1 m/S 755 mmHg 72%
07:00 +15°C° 0 mm 2 m/S 755 mmHg 63%
08:00 +16°C° 0 mm 2 m/S 755 mmHg 55%
09:00 +18°C° 0 mm 2 m/S 756 mmHg 49%
10:00 +19°C° 0 mm 2 m/S 756 mmHg 44%
11:00 +21°C° 0 mm 2 m/S 756 mmHg 38%
12:00 +21°C° 0 mm 2 m/S 756 mmHg 36%
13:00 +23°C° 0 mm 2 m/S 756 mmHg 35%
14:00 +24°C° 0 mm 2 m/S 756 mmHg 33%
15:00 +24°C° 0 mm 2 m/S 756 mmHg 35%
16:00 +23°C° 0 mm 2 m/S 756 mmHg 38%
17:00 +23°C° 0 mm 2 m/S 756 mmHg 40%
18:00 +20°C° 0 mm 2 m/S 757 mmHg 49%
19:00 +19°C° 0 mm 1 m/S 757 mmHg 58%
20:00 +18°C° 0 mm 1 m/S 757 mmHg 68%
21:00 +15°C° 0 mm 1 m/S 757 mmHg 67%
22:00 +14°C° 0 mm 1 m/S 758 mmHg 67%
23:00 +13°C° 0 mm 1 m/S 758 mmHg 66%

Morgen, 17 Juni, Donnerstag

Zeit Temperatur Niederschläge Wind Luftdruck Luftfeuchtigkeit
00:00 +13°C° 0 mm 1 m/S 758 mmHg 68%
01:00 +12°C° 0 mm 1 m/S 759 mmHg 70%
02:00 +12°C° 0 mm 1 m/S 759 mmHg 72%
03:00 +12°C° 0 mm 1 m/S 759 mmHg 73%
04:00 +13°C° 0 mm 1 m/S 759 mmHg 75%
05:00 +13°C° 0 mm 1 m/S 760 mmHg 77%
06:00 +15°C° 0 mm 1 m/S 760 mmHg 69%
07:00 +19°C° 0 mm 1 m/S 760 mmHg 60%
08:00 +21°C° 0 mm 1 m/S 760 mmHg 51%
09:00 +22°C° 0 mm 1 m/S 761 mmHg 48%
10:00 +24°C° 0 mm 2 m/S 761 mmHg 44%
11:00 +25°C° 0 mm 2 m/S 761 mmHg 40%
12:00 +26°C° 0 mm 2 m/S 761 mmHg 39%
13:00 +26°C° 0 mm 2 m/S 761 mmHg 38%
14:00 +27°C° 0 mm 2 m/S 761 mmHg 37%
15:00 +27°C° 0 mm 2 m/S 760 mmHg 40%
16:00 +26°C° 0 mm 2 m/S 760 mmHg 42%
17:00 +26°C° 0 mm 2 m/S 760 mmHg 45%
18:00 +24°C° 0 mm 2 m/S 760 mmHg 54%
19:00 +23°C° 0 mm 1 m/S 761 mmHg 63%
20:00 +21°C° 0 mm 1 m/S 761 mmHg 72%
21:00 +20°C° 0 mm 1 m/S 761 mmHg 73%
22:00 +18°C° 0 mm 1 m/S 761 mmHg 74%
23:00 +16°C° 0 mm 1 m/S 761 mmHg 75%

übermorgen, 18 Juni, Freitag

Zeit Temperatur Niederschläge Wind Luftdruck Luftfeuchtigkeit
00:00 +16°C° 0 mm 1 m/S 761 mmHg 77%
01:00 +15°C° 0 mm 1 m/S 761 mmHg 78%
02:00 +15°C° 0 mm 1 m/S 761 mmHg 80%
03:00 +15°C° 0 mm 1 m/S 761 mmHg 80%
04:00 +16°C° 0 mm 1 m/S 761 mmHg 79%
05:00 +16°C° 0 mm 1 m/S 761 mmHg 79%
06:00 +18°C° 0 mm 2 m/S 761 mmHg 71%
07:00 +20°C° 0 mm 2 m/S 761 mmHg 63%
08:00 +23°C° 0 mm 2 m/S 761 mmHg 55%
09:00 +25°C° 0 mm 3 m/S 761 mmHg 51%
10:00 +26°C° 0 mm 3 m/S 761 mmHg 46%
11:00 +27°C° 0 mm 3 m/S 761 mmHg 42%
12:00 +28°C° 0 mm 3 m/S 761 mmHg 40%
13:00 +29°C° 0 mm 4 m/S 760 mmHg 39%
14:00 +29°C° 0 mm 4 m/S 760 mmHg 38%
15:00 +29°C° 0 mm 4 m/S 760 mmHg 40%
16:00 +29°C° 0 mm 3 m/S 760 mmHg 42%
17:00 +29°C° 0 mm 3 m/S 759 mmHg 44%
18:00 +27°C° 0 mm 3 m/S 759 mmHg 54%
19:00 +25°C° 0 mm 2 m/S 759 mmHg 63%
20:00 +23°C° 0 mm 2 m/S 759 mmHg 73%
21:00 +21°C° 0 mm 2 m/S 760 mmHg 74%
22:00 +20°C° 0 mm 2 m/S 760 mmHg 76%
23:00 +19°C° 0 mm 2 m/S 760 mmHg 78%

19 Juni, Samstag

Zeit Temperatur Niederschläge Wind Luftdruck Luftfeuchtigkeit
00:00 +18°C° 0 mm 2 m/S 760 mmHg 80%
01:00 +18°C° 0 mm 2 m/S 760 mmHg 83%
02:00 +17°C° 0 mm 2 m/S 760 mmHg 86%
03:00 +18°C° 0 mm 2 m/S 761 mmHg 85%
04:00 +18°C° 0 mm 2 m/S 761 mmHg 84%
05:00 +19°C° 0 mm 2 m/S 761 mmHg 84%
06:00 +21°C° 0 mm 2 m/S 761 mmHg 76%
07:00 +23°C° 0 mm 2 m/S 761 mmHg 69%
08:00 +25°C° 0 mm 2 m/S 761 mmHg 62%
09:00 +27°C° 0 mm 2 m/S 761 mmHg 57%
10:00 +28°C° 0 mm 3 m/S 761 mmHg 52%
11:00 +29°C° 0 mm 3 m/S 761 mmHg 47%
12:00 +30°C° 0 mm 3 m/S 760 mmHg 43%
13:00 +30°C° 0 mm 3 m/S 760 mmHg 40%
14:00 +31°C° 0 mm 3 m/S 760 mmHg 37%
15:00 +31°C° 0 mm 3 m/S 760 mmHg 39%
16:00 +30°C° 0 mm 2 m/S 759 mmHg 41%
17:00 +30°C° 0 mm 2 m/S 759 mmHg 43%
18:00 +28°C° 0 mm 2 m/S 759 mmHg 53%
19:00 +26°C° 0 mm 2 m/S 759 mmHg 62%
20:00 +24°C° 0 mm 1 m/S 759 mmHg 72%
21:00 +23°C° 0 mm 1 m/S 759 mmHg 75%
22:00 +21°C° 0 mm 2 m/S 759 mmHg 78%
23:00 +20°C° 0 mm 2 m/S 759 mmHg 81%

20 Juni, Sonntag

Zeit Temperatur Niederschläge Wind Luftdruck Luftfeuchtigkeit
00:00 +19°C° 0 mm 2 m/S 759 mmHg 83%
01:00 +19°C° 0 mm 2 m/S 760 mmHg 85%
02:00 +18°C° 0 mm 2 m/S 760 mmHg 88%
03:00 +18°C° 0 mm 2 m/S 760 mmHg 87%
04:00 +19°C° 0 mm 2 m/S 760 mmHg 87%
05:00 +19°C° 0 mm 2 m/S 760 mmHg 87%
06:00 +21°C° 0 mm 2 m/S 759 mmHg 80%
07:00 +23°C° 0 mm 2 m/S 759 mmHg 73%
08:00 +25°C° 0 mm 3 m/S 759 mmHg 66%
09:00 +27°C° 0 mm 3 m/S 759 mmHg 60%
10:00 +28°C° 0 mm 3 m/S 759 mmHg 55%
11:00 +29°C° 0 mm 3 m/S 759 mmHg 49%
12:00 +30°C° 0 mm 3 m/S 758 mmHg 46%
13:00 +30°C° 0 mm 3 m/S 758 mmHg 44%
14:00 +31°C° 0 mm 3 m/S 758 mmHg 41%
15:00 +31°C° 0 mm 3 m/S 758 mmHg 42%
16:00 +31°C° 0 mm 3 m/S 757 mmHg 44%
17:00 +31°C° 0 mm 2 m/S 757 mmHg 45%
18:00 +29°C° 0 mm 2 m/S 757 mmHg 55%
19:00 +27°C° 0 mm 2 m/S 757 mmHg 64%
20:00 +25°C° 0 mm 1 m/S 757 mmHg 73%
21:00 +24°C° 0 mm 1 m/S 757 mmHg 75%
22:00 +23°C° 0 mm 2 m/S 757 mmHg 77%
23:00 +21°C° 0 mm 2 m/S 757 mmHg 79%

21 Juni, Montag

Zeit Temperatur Niederschläge Wind Luftdruck Luftfeuchtigkeit
00:00 +20°C° 0 mm 2 m/S 757 mmHg 80%
01:00 +19°C° 0 mm 2 m/S 758 mmHg 81%
02:00 +19°C° 0 mm 2 m/S 758 mmHg 81%
03:00 +19°C° 0 mm 2 m/S 758 mmHg 82%
04:00 +19°C° 0 mm 2 m/S 758 mmHg 82%
05:00 +20°C° 0 mm 2 m/S 758 mmHg 82%
06:00 +23°C° 0 mm 2 m/S 758 mmHg 76%
07:00 +24°C° 0 mm 2 m/S 758 mmHg 70%
08:00 +26°C° 0 mm 2 m/S 758 mmHg 64%
09:00 +28°C° 0 mm 1 m/S 758 mmHg 59%
10:00 +29°C° 0 mm 1 m/S 758 mmHg 55%
11:00 +30°C° 0 mm 1 m/S 758 mmHg 51%
12:00 +31°C° 0 mm 1 m/S 758 mmHg 49%
13:00 +31°C° 0 mm 1 m/S 758 mmHg 46%
14:00 +32°C° 0 mm 1 m/S 757 mmHg 44%
15:00 +31°C° 0 mm 1 m/S 757 mmHg 49%
16:00 +30°C° 0 mm 1 m/S 757 mmHg 53%
17:00 +29°C° 0 mm 1 m/S 757 mmHg 58%
18:00 +27°C° 0 mm 1 m/S 757 mmHg 61%
19:00 +24°C° 0 mm 0 m/S 757 mmHg 65%
20:00 +23°C° 0 mm 0 m/S 757 mmHg 68%
21:00 +23°C° 0 mm 0 m/S 757 mmHg 69%
22:00 +22°C° 0 mm 0 m/S 757 mmHg 70%
23:00 +23°C° 0 mm 1 m/S 758 mmHg 70%
Mehr zeigen

Wir brauchen deine Erlaubnis

Meteoprog und unser Service Anbieter werden persönliche Daten aufbewahren, so wie Cookies, Geräte Bezeichnung oder ähnliche Technologien von deinem Gerät und Prozess, so wie Persönliche Daten Inhalte und Werbungen, genauso wie social Media und den Verkehr zu analysieren.

  • Aufbewahrung und/oder Zugang zu deiner Geräte Informationen.

    Cookies, Geräte Bezeichnung oder andere Informationen, können aufbewahrt oder Zugang zu deinem Gerät erhalten, für den Grund, der oben angegeben wird.

  • Personalisierte Werbung und Inhalte, Messungen, Einblick in das Publikum und Produkt Entwicklung.

    Werbungen und Inhalte können personalisiert werden, basierend auf ein Profil. Mehr Daten können besser personalisierte Werbungen und Inhalte hinzufügen. Werbung und Inhalte können gezeigt und gemessen werden. Einblicke über das Publikum, welche die Werbung gesehen haben und den Inhalt, können abgeleitet werden. So wie Daten können genutzt werden, um es zu verbessern oder die Benutzer Erfahrung zu verbessern das System und die Software.

Wenn du “Ich stimme zu” klickst, erlaubst du uns, die Cookies zu benutzen die Geräte Bezeichnung, den Web oder ähnliche Technologien zu benutzen. Deine Settings, können in deinem Gerät bei deinem Browser geändert werden.

Für den bestimmten Zweck, berechtigten Interessen beruhen darauf, mehr als auf den Inhalt. Du kannst mehr darüber in unseren Privaten und Cookie Politik lesen.